Regional Weather Roundup
Issued by NWS

Home | Current Version | Previous Version | Text Only | Print | Product List | Glossary Off
Versions: 1 2 3 4 5 6 7 8 9 10 11 12 13 14 15 16 17 18 19 20 21 22 23 24 25 26 27 28 29 30 31 32 33 34 35 36 37 38 39 40 41 42 43 44 45 46 47 48 49 50

000
ASUS43 KLMK 231410
RWRKY
KENTUCKY REGIONAL WEATHER ROUNDUP
NATIONAL WEATHER SERVICE LOUISVILLE KY
1000 AM EDT THU OCT 23 2014

NOTE "FAIR" INDICATES FEW OR NO CLOUDS BELOW 12,000 FEET
WITH NO SIGNIFICANT WEATHER AND/OR OBSTRUCTIONS TO VISIBILITY.

KYZ001>023-026-027-061>063-070>075-231500-
WESTERN AND SOUTH CENTRAL KENTUCKY

CITY           SKY/WX    TMP DP  RH WIND       PRES   REMARKS
PADUCAH        SUNNY     46  43  89 CALM      30.24R
HENDERSON      SUNNY    N/A N/A N/A E5        30.25S
OWENSBORO      SUNNY     47  42  82 SE8       30.26S
HOPKINSVILLE   SUNNY     47  45  93 E9        30.23S
BOWLING GREEN  SUNNY     44  41  89 E6        30.26S
GLASGOW        SUNNY     46  42  85 E5        30.25S
$$

KYZ024-025-028>034-038-045-046-053-231500-
NORTH CENTRAL KENTUCKY

CITY           SKY/WX    TMP DP  RH WIND       PRES   REMARKS
LOUISVILLE/SDF MOSUNNY   48  42  80 SE8       30.26S
LOUISVILLE/LOU SUNNY     47  42  83 CALM      30.27S
FORT KNOX      SUNNY     46  41  82 E3        30.25R
$$

KYZ035>037-039>044-047>052-055>060-089>105-231500-
NORTHEAST KENTUCKY

CITY           SKY/WX    TMP DP  RH WIND       PRES   REMARKS
LEXINGTON      MOSUNNY   52  39  61 E7        30.25S
COVINGTON      MOSUNNY   49  41  74 CALM      30.25S
FRANKFORT      SUNNY     50  40  68 CALM      30.25R
$$

KYZ054-064>069-076>088-106>120-231500-
SOUTHEAST KENTUCKY

CITY           SKY/WX    TMP DP  RH WIND       PRES   REMARKS
JACKSON        CLOUDY    48  40  73 CALM      30.23S
LONDON         CLOUDY    50  38  63 NE8       30.23F
SOMERSET       CLOUDY    46  37  71 E8        30.25S
MIDDLESBORO    CLOUDY    48  39  72 CALM      30.24S
MONTICELLO     CLOUDY    50  42  73 E12       30.25S
$$




USA.gov is the U.S. government's official web portal to all federal, state and local government web resources and services.